CW4489 Marathon FL US current weather conditions

sailwx.info

Wind from 095 at 2 knots gusting 4

Air temperature 28.9° C
Dewpoint 24.9° C

Last reported at 2014-Sep-01 10:56 UTC.
Time now 2014-Sep-01 11:42 UTC

Location: N 24°44' W 081°02'.
View on Google Maps.

See reports from other nearby stations

  
Tides and Currents Weather Stations Pressure Air Temp Water Temp Dewpoint Dewpoint Depression Visibility Wind Speed Wind Dir Waves Ship Positions
date/time (UTC)wind fromknots sea level pressurealtimeterstation pressurevisibilityair tempwater tempwave heightnotes
2014-Sep-01 10:56 095 2 gusting 4 28.9
2014-Sep-01 10:46 090 1 gusting 6 28.3
2014-Sep-01 10:36 126 2 gusting 6 28.3
2014-Sep-01 10:16 080 1 gusting 3 28.3
2014-Sep-01 09:56 086 28.3
2014-Sep-01 09:46 071 0 gusting 2 28.3
2014-Sep-01 09:36 078 28.3
2014-Sep-01 09:26 075 2 gusting 6 28.9
2014-Sep-01 09:06 116 1 gusting 3 28.9
2014-Sep-01 08:46 089 2 gusting 3 28.9
2014-Sep-01 08:36 118 1 gusting 2 28.9
2014-Sep-01 08:26 066 1 gusting 2 28.9
2014-Sep-01 08:16 080 28.9
2014-Sep-01 08:06 073 0 gusting 2 28.9
2014-Sep-01 07:56 084 1 gusting 3 28.9
2014-Sep-01 07:36 088 28.9
2014-Sep-01 07:06 069 0 gusting 3 29.4
2014-Sep-01 06:46 094 29.4
2014-Sep-01 06:26 077 1 gusting 4 29.4
2014-Sep-01 05:56 057 29.4
2014-Sep-01 05:46 089 1 gusting 6 29.4
2014-Sep-01 05:36 065 2 gusting 4 29.4
2014-Sep-01 05:26 163 2 gusting 5 29.4
2014-Sep-01 05:06 092 29.4
2014-Sep-01 04:56 092 29.4
2014-Sep-01 04:26 108 1 gusting 5 29.4
2014-Sep-01 04:16 031 2 gusting 3 29.4
2014-Sep-01 03:46 084 1 gusting 3 29.4
2014-Sep-01 03:26 077 2 gusting 6 29.4
2014-Sep-01 03:06 086 2 gusting 6 29.4
2014-Sep-01 02:56 067 29.4
2014-Sep-01 02:26 109 29.4
2014-Sep-01 02:16 105 29.4
2014-Sep-01 02:06 079 1 gusting 2 29.4
2014-Sep-01 01:46 095 1 gusting 3 29.4
2014-Sep-01 01:36 091 0 gusting 3 30.0
2014-Sep-01 01:16 102 1 gusting 3 30.0
2014-Sep-01 01:06 109 0 gusting 2 30.0
2014-Sep-01 00:46 107 0 gusting 5 30.0
2014-Sep-01 00:36 043 0 gusting 8 30.0
2014-Sep-01 00:26 142 2 gusting 3 30.0
2014-Aug-31 23:56 113 30.0
2014-Aug-31 23:46 109 30.0
2014-Aug-31 23:36 086 2 gusting 7 30.6
2014-Aug-31 23:26 110 2 gusting 3 30.6
2014-Aug-31 23:06 088 2 gusting 8 30.6
2014-Aug-31 22:56 071 2 gusting 4 30.6
2014-Aug-31 22:46 095 0 gusting 3 30.6
2014-Aug-31 22:26 128 2 gusting 3 31.1
2014-Aug-31 22:16 108 31.1
2014-Aug-31 22:06 110 0 gusting 6 31.1
2014-Aug-31 21:56 078 1 gusting 5 31.1
2014-Aug-31 21:46 112 2 gusting 8 31.1
2014-Aug-31 21:36 092 1 gusting 5 31.7
2014-Aug-31 21:26 103 3 gusting 9 31.1
2014-Aug-31 21:06 088 2 gusting 6 31.7
2014-Aug-31 20:46 080 1 gusting 6 32.2
2014-Aug-31 20:36 055 4 gusting 6 32.2
2014-Aug-31 20:16 075 2 gusting 8 32.2
2014-Aug-31 20:06 083 1 gusting 6 32.2
2014-Aug-31 19:56 096 2 gusting 8 32.2
2014-Aug-31 19:36 081 2 gusting 6 32.2
2014-Aug-31 18:56 076 0 gusting 6 32.2
2014-Aug-31 18:46 109 1 gusting 6 32.2
2014-Aug-31 18:26 084 2 gusting 6 32.2
2014-Aug-31 18:06 076 3 gusting 5 32.2
2014-Aug-31 17:56 113 0 gusting 6 32.2
2014-Aug-31 17:46 057 1 gusting 2 32.2
2014-Aug-31 17:45 103 2 gusting 2 32.2
2014-Aug-31 17:36 082 2 gusting 6 32.2
2014-Aug-31 17:26 067 2 gusting 6 32.2
2014-Aug-31 16:36 078 5 gusting 8 31.7
2014-Aug-31 16:16 069 1 gusting 7 31.7
2014-Aug-31 16:06 074 2 gusting 6 31.7
2014-Aug-31 15:56 111 0 gusting 6 31.7
2014-Aug-31 15:16 117 2 gusting 6 31.7
2014-Aug-31 15:06 065 2 gusting 7 31.1
2014-Aug-31 14:56 081 2 gusting 8 31.1
2014-Aug-31 14:46 082 0 gusting 6 31.1
2014-Aug-31 14:26 102 0 gusting 6 31.1
2014-Aug-31 14:17 101 0 gusting 6 31.1
2014-Aug-31 13:57 085 4 gusting 5 30.6
2014-Aug-31 13:37 105 2 gusting 6 30.0
2014-Aug-31 13:27 086 2 gusting 5 30.0
2014-Aug-31 13:17 123 3 gusting 4 30.0
2014-Aug-31 13:07 101 4 gusting 6 29.4
2014-Aug-31 12:37 105 2 gusting 6 28.9
2014-Aug-31 11:57 133 0 gusting 5 27.8
2014-Aug-31 11:37 076 1 gusting 3 27.2
2014-Aug-31 11:07 097 0 gusting 1 26.1
2014-Aug-31 10:47 076 1 gusting 2 25.6
2014-Aug-31 10:37 059 25.6
2014-Aug-31 10:07 031 5 gusting 10 26.1
2014-Aug-31 09:57 128 2 gusting 8 27.2
2014-Aug-31 09:47 120 0 gusting 6 28.3
2014-Aug-31 09:17 090 1 gusting 3 28.9
2014-Aug-31 08:57 094 0 gusting 2 28.9
2014-Aug-31 08:17 111 1 gusting 3 28.9
2014-Aug-31 07:57 091 28.9
2014-Aug-31 07:37 113 28.9
2014-Aug-31 07:07 108 28.3
2014-Aug-31 06:37 134 4 gusting 6 27.8
2014-Aug-31 06:17 090 27.2
2014-Aug-31 05:57 114 27.2
2014-Aug-31 05:47 132 2 gusting 6 27.2
2014-Aug-31 05:37 143 5 gusting 6 27.2
2014-Aug-31 05:07 126 28.3
2014-Aug-31 04:27 117 2 gusting 6 30.0
2014-Aug-31 04:17 136 0 gusting 9 30.0
2014-Aug-31 04:07 103 2 gusting 7 30.0
2014-Aug-31 03:57 119 1 gusting 8 29.4
2014-Aug-31 03:27 121 3 gusting 11 29.4
2014-Aug-31 02:57 141 6 gusting 6 29.4
2014-Aug-31 02:47 100 2 gusting 8 28.9
2014-Aug-31 02:27 103 28.9
2014-Aug-31 02:17 111 1 gusting 6 28.9
2014-Aug-31 02:07 085 0 gusting 5 28.9
2014-Aug-31 01:27 082 1 gusting 3 26.1
2014-Aug-31 01:07 085 0 gusting 3 25.6
2014-Aug-31 00:47 129 3 gusting 13 27.2
2014-Aug-31 00:37 188 6 gusting 14 29.4
2014-Aug-31 00:27 084 3 gusting 6 30.6
2014-Aug-31 00:17 074 2 gusting 6 30.6
2014-Aug-31 00:07 083 3 gusting 7 30.6
2014-Aug-30 23:57 079 11 gusting 11 30.6
2014-Aug-30 23:37 090 0 gusting 8 30.6
2014-Aug-30 23:27 092 2 gusting 7 30.6
2014-Aug-30 22:37 122 0 gusting 7 31.1
2014-Aug-30 22:27 119 5 gusting 6 31.1
2014-Aug-30 22:17 087 3 gusting 8 31.1
2014-Aug-30 21:57 130 31.7
2014-Aug-30 21:07 148 2 gusting 6 32.2
2014-Aug-30 20:57 069 2 gusting 6 31.7
2014-Aug-30 20:47 118 1 gusting 6 32.2
2014-Aug-30 20:37 067 2 gusting 6 32.2
2014-Aug-30 20:17 064 3 gusting 6 32.2
2014-Aug-30 20:07 101 32.2
2014-Aug-30 19:47 075 2 gusting 6 32.2
2014-Aug-30 19:07 076 0 gusting 9 32.2
2014-Aug-30 18:47 119 32.8
2014-Aug-30 18:37 160 6 gusting 6 32.8
2014-Aug-30 18:27 123 3 gusting 6 32.8
2014-Aug-30 18:07 085 2 gusting 6 32.8
2014-Aug-30 17:57 077 2 gusting 5 32.8
2014-Aug-30 17:47 091 1 gusting 8 32.8
2014-Aug-30 17:37 079 3 gusting 6 32.8
2014-Aug-30 17:27 090 1 gusting 6 32.8
2014-Aug-30 17:07 089 1 gusting 7 32.8
2014-Aug-30 16:57 091 0 gusting 6 32.8
2014-Aug-30 16:47 088 2 gusting 8 32.2
2014-Aug-30 16:37 076 2 gusting 8 32.2
2014-Aug-30 16:17 074 2 gusting 5 32.2
2014-Aug-30 16:07 085 2 gusting 7 32.2
2014-Aug-30 15:57 112 0 gusting 6 32.2
2014-Aug-30 15:37 088 32.2
2014-Aug-30 15:07 094 4 gusting 5 32.2
2014-Aug-30 14:17 071 3 gusting 8 31.1
2014-Aug-30 14:07 140 4 gusting 6 31.1
2014-Aug-30 13:57 091 1 gusting 5 31.1
2014-Aug-30 13:27 051 0 gusting 6 30.6
2014-Aug-30 13:17 118 1 gusting 7 30.6
2014-Aug-30 12:37 051 2 gusting 4 30.0
2014-Aug-30 12:17 065 30.0
2014-Aug-30 11:57 110 3 gusting 4 29.4
2014-Aug-30 11:47 091 0 gusting 4 29.4
2014-Aug-30 11:17 071 0 gusting 6 29.4
2014-Aug-30 11:07 089 1 gusting 6 29.4